This demonstration page uses our WeatherBlox Daily Observations layout. Learn more.

Left ArrowRight Arrow

Hourly Observations for May 16, 2020

Temp ( °F °C ) Dew Point ( °F °C ) Humidity (%) Winds ( mph kmh ) Pressure ( in mb ) Visibility ( mi km ) Precip ( " mm )
12:52 am 00:52 Cloudy 60 15.6 40 4.4 47 47 E 9 15 29.96 1014 10 16 0.00 0.00
1:52 am 01:52 Cloudy 59 15 42 5.6 54 54 SE 6 9 29.95 1014 10 16 0.00 0.00
2:52 am 02:52 Cloudy 58 14.4 44 6.7 60 60 Calm 29.95 1014 10 16 0.00 0.00
3:52 am 03:52 Cloudy 52 11.1 44 6.7 75 75 NNE 3 6 29.93 1014 10 16 0.00 0.00
4:52 am 04:52 Cloudy 52 11.1 45 7.2 77 77 WNW 6 9 29.94 1014 10 16 0.00 0.00
5:52 am 05:52 Cloudy 51 10.6 44 6.7 77 77 Calm 29.96 1015 10 16 0.00 0.00
6:52 am 06:52 Cloudy 51 10.6 46 7.8 83 83 NNW 6 9 29.98 1015 10 16 0.00 0.00
7:52 am 07:52 Cloudy 56 13.3 47 8.3 72 72 N 7 11 29.97 1015 10 16 0.00 0.00
8:52 am 08:52 Cloudy 62 16.7 48 8.9 60 60 Calm 29.96 1015 10 16 0.00 0.00
9:52 am 09:52 Cloudy 66 18.9 51 10.6 59 59 Calm 29.95 1014 10 16 0.00 0.00
10:52 am 10:52 Mostly Cloudy 70 21.1 52 11.1 53 53 ESE 12 19 29.94 1014 10 16 0.00 0.00
11:52 am 11:52 Cloudy 70 21.1 54 12.2 57 57 ESE 13 20 29.94 1014 10 16 0.00 0.00
12:52 pm 12:52 Cloudy 72 22.2 57 13.9 59 59 ESE 10 17 29.91 1013 10 16 0.00 0.00
1:52 pm 13:52 Cloudy 72 22.2 58 14.4 61 61 ESE 15 24 29.88 1012 10 16 0.00 0.00
2:52 pm 14:52 Cloudy 72 22.2 58 14.4 61 61 ESE 13 20 29.87 1012 10 16 0.00 0.00
3:52 pm 15:52 Cloudy 73 22.8 59 15 62 62 ESE 12 19 29.86 1011 10 16 0.00 0.00
4:52 pm 16:52 Cloudy 75 23.9 58 14.4 55 55 SE 12 19 29.82 1010 10 16 0.00 0.00
5:48 pm 17:48 Cloudy with Thunderstorms 73 23 59 15 61 61 SE 16 26 29.78 1009 10 16 0.00 0.00
5:52 pm 17:52 Cloudy with Thunderstorms 74 23.3 59 15 60 60 SE 14 22 29.81 1009 10 16 0.00 0.00
6:23 pm 18:23 Cloudy with Thunderstorms 65 18.3 62 16.7 90 90 WNW 13 20 29.80 1009 8 13 0.00 0.00
6:52 pm 18:52 Cloudy with Thunderstorms 65 18.3 63 17.2 93 93 WNW 6 9 29.83 1010 10 16 0.01 0.25
7:28 pm 19:28 Cloudy with Light Rain 61 16.1 59 15 93 93 N 8 13 29.84 1010 7 11 0.15 3.81
7:52 pm 19:52 Cloudy with Light Rain 60 15.6 58 14.4 93 93 NNW 12 19 29.84 1011 4 6 0.32 8.13
8:52 pm 20:52 Cloudy with Rain 59 15 58 14.4 96 96 NW 9 15 29.85 1011 4 6 0.07 1.78
9:52 pm 21:52 Cloudy 57 13.9 56 13.3 96 96 NNW 10 17 29.83 1010 9 14 0.03 0.76
10:52 pm 22:52 Cloudy 56 13.3 54 12.2 93 93 NNW 13 20 29.85 1011 10 16 0.00 0.00
11:35 pm 23:35 Cloudy 56 13.3 53 11.7 90 90 NW 13 20 29.86 1011 10 16 0.00 0.00
11:52 pm 23:52 Cloudy 55 12.8 53 11.7 93 93 NW 12 19 29.86 1011 10 16 0.00 0.00

Powered by AerisWeather